This is the latest recevied weather packets stored in our database for station/object KG7DQI-13. If no packets are shown the sender has not sent any weather packets the latest 10 day(s).
| Time | Temp. | Humidity | Pressure | Rain* | Wind** | Luminosity | Snow |
|---|---|---|---|---|---|---|---|
| 1777603462 | 18.89° C | 34% | 914.8 hPa | 0 mm | - | 9 W/m² | - |
| 1777602548 | 19.44° C | 33% | 914.7 hPa | 0 mm | - | 18 W/m² | - |
| 1777601647 | 20° C | 32% | 914.7 hPa | 0 mm | - | 25 W/m² | - |
| 1777600720 | 20.56° C | 32% | 914.8 hPa | 0 mm | - | 33 W/m² | - |
| 1777599822 | 20.56° C | 31% | 914.8 hPa | 0 mm | - | 40 W/m² | - |
| 1777598909 | 21.11° C | 30% | 914.9 hPa | 0 mm | - | 47 W/m² | - |
| 1777597971 | 21.67° C | 30% | 914.9 hPa | 0 mm | - | 54 W/m² | - |
| 1777597029 | 22.22° C | 30% | 915 hPa | 0 mm | - | 62 W/m² | - |
| 1777596127 | 22.22° C | 30% | 915.1 hPa | 0 mm | - | 74 W/m² | - |
| 1777595191 | 22.22° C | 30% | 915.2 hPa | 0 mm | - | 109 W/m² | - |
| 1777594317 | 22.22° C | 31% | 915.2 hPa | 0 mm | - | 114 W/m² | - |
| 1777593430 | 22.22° C | 32% | 915.3 hPa | 0 mm | - | 167 W/m² | - |
| 1777592481 | 22.22° C | 32% | 915.4 hPa | 0 mm | - | 146 W/m² | - |
| 1777591555 | 22.22° C | 32% | 915.4 hPa | 0 mm | - | 206 W/m² | - |
| 1777590675 | 22.22° C | 31% | 915.5 hPa | 0 mm | - | 232 W/m² | - |
| 1777589786 | 22.78° C | 29% | 915.6 hPa | 0 mm | - | 427 W/m² | - |
| 1777588868 | 22.78° C | 29% | 915.9 hPa | 0 mm | - | 543 W/m² | - |
| 1777587940 | 23.33° C | 29% | 915.9 hPa | 0 mm | - | 608 W/m² | - |
| 1777587014 | 22.78° C | 29% | 916.1 hPa | 0 mm | - | 657 W/m² | - |
| 1777586126 | 22.78° C | 29% | 916.4 hPa | 0 mm | - | 756 W/m² | - |
| 1777585239 | 22.78° C | 31% | 916.6 hPa | 0 mm | - | 731 W/m² | - |
| 1777584311 | 22.22° C | 32% | 916.7 hPa | 0 mm | - | 877 W/m² | - |
| 1777583387 | 22.22° C | 33% | 916.9 hPa | 0 mm | - | 875 W/m² | - |
| 1777582489 | 21.67° C | 35% | 917.1 hPa | 0 mm | - | 707 W/m² | - |
| 1777581624 | 20.56° C | 36% | 917.1 hPa | 0 mm | - | 756 W/m² | - |
* Rain latest hour (hover to see other rain measurements)
** Current wind speed in m/s (hover to see current wind gust speed)